Retour au catalogue

FIREFLY-1

ActifScienceSSO
NORAD 62701·PAYLOAD·🇮🇳 India

Lancé Jan 14, 2025 depuis Vandenberg Space Force Base

Loading…

Prochains Passages (prochaines 24 heures)

TLE

FraisSource: Space-Track

Époque: Sep 14, 2026, 12:20 UTC

1 62701U 25009CW  26257.51441051  .00000821  00000-0  84839-4 0  9992
2 62701  97.7005 333.7601 0004653  58.5063 301.6610 14.92745896 90645

Suivez FIREFLY-1 en temps réel avec AllMySat

Download on the App Store